Waarnemingen

Advertentie
Mijn weer
Arkona, Duitsland (10091): temperatuur & dauwpunt: 22.04.2017 02:00:00 - 28.04.2017 02:00:00 (CEST)Arkona, Duitsland (10091): temperatuur 5cm & temperatuur -5cm: 22.04.2017 02:00:00 - 28.04.2017 02:00:00 (CEST)Arkona, Duitsland (10091): temperatuur -20cm & temperatuur -100cm: 22.04.2017 02:00:00 - 28.04.2017 02:00:00 (CEST)Arkona, Duitsland (10091): windsnelheid & windstoten: 22.04.2017 02:00:00 - 28.04.2017 02:00:00 (CEST)Arkona, Duitsland (10091): windrichting: 22.04.2017 02:00:00 - 28.04.2017 02:00:00 (CEST)Arkona, Duitsland (10091): luchtdruk: 22.04.2017 02:00:00 - 28.04.2017 02:00:00 (CEST)Arkona, Duitsland (10091): zicht: 22.04.2017 02:00:00 - 28.04.2017 02:00:00 (CEST)Arkona, Duitsland (10091): Zonneschijnduur: 22.04.2017 02:00:00 - 28.04.2017 02:00:00 (CEST)Arkona, Duitsland (10091): neerslag: 22.04.2017 02:00:00 - 28.04.2017 02:00:00 (CEST)
Datum & Tijd tt [°C] td [°C] tt 5cm [°C] tt -5cm [°C] tt -20cm [°C] tt -100cm [°C] ff [km/u] ff [kn] fx [km/u] fx [kn] dd ppp [hPa] vv [km] sd [min] rr [mm]
28.04.2017 02:00:00 5,4 3,6 4,3 6,6 9,6 7,9 18 10 22 12 Z 1014,1 21 0 0,0
28.04.2017 01:00:00 5,8 4,0 4,8 7,2 9,9 7,9 19 10 24 13 Z 1014,3 28 0 0,0
28.04.2017 00:00:00 5,8 2,8 5,3 7,4 10,3 7,9 17 9 23 12 Z 1014,5 34 0 0,0
27.04.2017 23:00:00 6,0 3,1 5,5 8,1 10,7 7,9 16 9 18 10 Z 1014,5 36 0 0,0
27.04.2017 22:00:00 5,1 1,0 3,2 8,6 11,1 7,9 11 6 14 7 ZZW 1014,5 40 0 0,0
27.04.2017 21:00:00 4,6 1,2 2,4 10,2 11,4 7,9 14 7 21 12 WZW 1014,4 34 11 0,0
27.04.2017 20:00:00 6,4 1,4 5,5 12,3 11,6 7,9 16 9 24 13 WZW 1014,1 38 59 0,0
27.04.2017 19:00:00 7,7 -0,7 8,5 14,1 11,6 7,9 21 12 30 16 W 1013,8 26 60 0,0
27.04.2017 18:00:00 7,8 -1,6 8,7 15,7 11,4 7,9 26 14 41 22 W 1013,8 28 54 0,0
27.04.2017 17:00:00 9,1 -2,0 11,1 17,6 11,0 7,9 27 14 40 22 W 1013,6 18 60 0,0
27.04.2017 16:00:00 9,1 -2,0 13,0 18,3 10,3 7,9 25 13 36 20 WZW 1013,7 14 60 0,0
27.04.2017 15:00:00 8,6 -0,7 12,2 17,9 9,7 7,9 26 14 42 23 W 1013,7 45 59 0,0
27.04.2017 14:00:00 7,6 -0,8 11,3 16,7 9,0 7,9 28 15 44 24 W 1013,7 40 60 0,0
27.04.2017 13:00:00 7,1 -0,4 10,5 15,0 8,3 7,9 29 16 39 21 W 1013,6 40 54 0,0
27.04.2017 12:00:00 7,1 0,8 11,6 12,6 7,8 7,9 24 13 37 20 WNW 1013,5 30 42 0,0
27.04.2017 11:00:00 6,9 2,6 8,0 10,8 7,4 7,9 24 13 35 19 WZW 1013,3 20 12 0,0
27.04.2017 10:00:00 7,0 3,5 7,9 10,0 7,1 7,9 16 9 22 12 WZW 1012,8 20 33 0,0
27.04.2017 09:00:00 5,4 3,3 4,9 7,0 6,9 7,9 13 7 20 11 WZW 1012,8 20 39 0,0
27.04.2017 08:00:00 4,5 3,3 4,0 4,6 7,0 7,8 14 8 16 8 WZW 1012,5 20 15 0,0
27.04.2017 07:00:00 3,0 2,4 2,4 3,4 7,3 7,8 13 7 19 11 WZW 1012,4 27 42 0,0
27.04.2017 06:00:00 1,7 1,2 -0,7 3,1 7,6 7,8 17 9 19 10 W 1012,2 16 0 0,0
27.04.2017 05:00:00 1,4 1,0 -0,8 3,5 8,0 7,8 16 9 22 12 WZW 1012,2 4,0 0 0,0
27.04.2017 04:00:00 1,3 0,8 -0,6 3,9 8,3 7,8 17 9 19 10 WZW 1012,3 5 0 0,0
27.04.2017 03:00:00 2,4 1,3 -0,1 4,3 8,7 7,8 17 9 19 10 W 1012,3 15 0 0,0
27.04.2017 02:00:00 2,4 1,0 0,1 4,8 9,2 7,8 16 9 19 10 W 1012,4 18 0 0,0
27.04.2017 01:00:00 2,5 1,2 0,2 5,5 9,6 7,8 16 8 19 11 WZW 1012,6 22 0 0,0
27.04.2017 00:00:00 2,6 1,2 0,3 6,2 10,1 7,8 16 9 18 10 W 1012,6 29 0 0,0
26.04.2017 23:00:00 3,3 1,8 0,7 7,0 10,6 7,8 18 10 20 11 W 1012,6 31 0 0,0
26.04.2017 22:00:00 3,8 1,7 1,9 8,1 11,1 7,8 18 10 23 12 W 1012,5 31 0 0,0
26.04.2017 21:00:00 3,5 1,2 1,7 9,7 11,6 7,8 18 10 26 14 W 1012,2 34 20 0,0
26.04.2017 20:00:00 5,5 2,0 4,8 12,1 11,8 7,8 20 11 30 16 W 1011,8 42 60 0,0
26.04.2017 19:00:00 6,6 1,7 7,8 14,9 11,9 7,8 22 12 31 17 W 1011,6 34 60 0,0
26.04.2017 18:00:00 7,0 1,1 9,2 17,0 11,6 7,9 19 10 29 16 WNW 1011,5 28 60 0,0
26.04.2017 17:00:00 7,3 1,4 10,5 19,0 11,2 7,9 18 10 29 16 WNW 1011,5 25 60 0,0
26.04.2017 16:00:00 7,0 0,4 11,1 19,7 10,5 7,9 23 12 33 18 WNW 1011,4 23 60 0,0
26.04.2017 15:00:00 6,9 0,7 11,7 19,9 9,7 7,9 21 12 30 16 WNW 1011,2 55 60 0,0
26.04.2017 14:00:00 7,7 0,7 12,8 18,8 8,8 7,9 16 9 25 14 WNW 1011,0 55 60 0,0
26.04.2017 13:00:00 6,5 1,3 11,6 17,2 8,0 7,9 18 10 26 14 WNW 1010,9 50 59 0,0
26.04.2017 12:00:00 6,0 1,3 10,1 14,5 7,3 7,9 18 10 25 14 WNW 1010,7 45 56 0,0
26.04.2017 11:00:00 5,5 0,8 8,9 12,5 6,7 7,9 18 10 24 13 WNW 1010,1 45 58 0,0
26.04.2017 10:00:00 5,9 1,5 8,6 9,8 6,3 7,9 14 8 26 14 WNW 1009,5 40 59 0,0
26.04.2017 09:00:00 5,2 0,9 6,9 6,9 6,1 7,9 19 10 27 14 WNW 1009,3 45 60 0,0
26.04.2017 08:00:00 4,8 0,9 5,0 4,7 6,1 7,9 18 10 25 14 W 1008,9 40 60 0,0
26.04.2017 07:00:00 4,0 0,9 3,1 3,5 6,3 7,9 20 11 29 16 W 1008,5 30 49 0,0
26.04.2017 06:00:00 3,5 1,3 2,4 3,4 6,4 7,9 23 12 35 19 W 1008,0 35 0 0,0
26.04.2017 05:00:00 4,1 0,6 2,7 3,5 6,6 7,9 30 16 46 25 W 1007,1 43 0 0,0
26.04.2017 04:00:00 4,5 -0,1 3,3 3,7 6,9 7,9 33 18 45 24 W 1006,7 40 0 0,0
26.04.2017 03:00:00 4,3 -0,5 3,1 4,0 7,1 7,9 32 17 46 25 W 1006,7 42 0 0,0
26.04.2017 02:00:00 4,8 -1,0 3,7 4,2 7,3 7,9 37 20 50 27 W 1006,5 43 0 0,0
26.04.2017 01:00:00 4,8 -0,9 3,8 4,5 7,6 7,9 37 20 50 27 W 1006,2 42 0 0,0
26.04.2017 00:00:00 4,9 -0,9 3,9 4,7 7,9 7,9 35 19 49 27 W 1005,7 43 0 0,0
25.04.2017 23:00:00 4,5 -0,8 3,5 5,1 8,3 7,9 34 18 50 27 W 1005,5 43 0 0,0
25.04.2017 22:00:00 4,8 -1,4 3,7 5,7 8,6 7,9 37 20 51 28 W 1005,2 51 0 0,0
25.04.2017 21:00:00 4,8 0,0 3,9 6,7 8,9 7,9 33 18 43 23 W 1005,0 45 16 0,0
25.04.2017 20:00:00 4,9 0,2 4,2 8,5 9,1 7,9 29 16 47 25 W 1004,6 46 50 0,0
25.04.2017 19:00:00 5,2 0,9 6,1 10,3 9,0 7,9 34 18 47 25 WZW 1004,1 13 60 0,0
25.04.2017 18:00:00 5,0 -0,8 6,4 11,4 9,0 7,9 29 15 34 19 W 1003,9 15 50 0,0
25.04.2017 17:00:00 4,5 -0,9 5,8 11,2 8,9 7,9 24 13 34 19 W 1003,6 44 9 0,0
25.04.2017 16:00:00 4,2 -0,6 5,8 10,3 8,8 7,9 22 12 32 17 W 1003,1 46 0 0,0
25.04.2017 15:00:00 5,4 -4,4 7,6 12,3 8,6 7,9 16 9 34 18 W 1002,6 50 1 0,0
25.04.2017 14:00:00 5,4 -2,2 6,5 12,0 8,3 7,9 17 9 31 17 W 1002,4 45 0 0,0
25.04.2017 13:00:00 5,7 -1,5 8,4 14,0 7,6 7,9 21 11 29 16 WNW 1002,0 45 26 0,0
25.04.2017 12:00:00 6,3 -1,4 11,7 14,2 6,9 7,9 14 7 22 12 NW 1001,8 45 59 0,0
25.04.2017 11:00:00 5,5 -2,0 9,5 11,5 6,3 7,9 14 8 20 11 WNW 1001,8 50 60 0,0
25.04.2017 10:00:00 5,3 -2,8 8,0 8,9 6,0 7,9 11 6 24 13 NW 1001,7 45 60 0,0
25.04.2017 09:00:00 5,3 -2,7 6,2 5,9 5,9 7,9 13 7 21 11 WNW 1001,8 45 42 0,0
25.04.2017 08:00:00 4,2 -3,3 3,9 4,1 6,0 7,9 14 8 22 12 NW 1001,9 45 0 0,0
25.04.2017 07:00:00 3,9 -2,2 3,3 3,7 6,1 7,9 11 6 23 12 WNW 1001,8 40 0 0,0
25.04.2017 06:00:00 4,0 -1,5 3,3 3,7 6,2 7,9 15 8 24 13 NW 1002,1 40 0 0,0
25.04.2017 05:00:00 4,1 -1,5 3,5 3,8 6,3 7,9 16 9 23 12 WNW 1002,6 37 0 0,0
25.04.2017 04:00:00 4,3 -1,5 3,6 3,9 6,5 7,9 13 7 24 13 WNW 1002,9 38 0 0,0
25.04.2017 03:00:00 4,5 -1,3 3,6 3,9 6,6 7,9 16 8 32 17 WNW 1003,5 38 0 0,0
25.04.2017 02:00:00 4,9 -0,8 4,1 4,0 6,8 7,9 21 11 29 15 WNW 1004,1 35 0 0,0
25.04.2017 01:00:00 4,6 -0,6 3,4 4,0 7,0 7,9 16 9 29 16 WNW 1004,6 34 0 0,0
25.04.2017 00:00:00 5,0 -1,2 3,7 4,4 7,2 7,9 21 11 35 19 WNW 1005,0 38 0 0,0
24.04.2017 23:00:00 5,3 0,1 4,4 4,9 7,5 7,9 29 16 39 21 W 1005,4 33 0 0,0
24.04.2017 22:00:00 5,7 0,9 4,8 5,4 7,7 7,9 31 17 42 23 W 1005,4 33 0 0,0
24.04.2017 21:00:00 6,2 2,1 5,6 6,3 7,8 7,9 32 18 50 27 W 1005,0 34 0 0,0
24.04.2017 20:00:00 7,0 3,1 6,5 7,3 7,8 7,9 40 22 51 28 W 1004,7 32 0 0,0
24.04.2017 19:00:00 7,4 5,9 7,2 7,9 7,8 7,9 42 23 70 38 W 1004,7 16 0 0,1
24.04.2017 18:00:00 7,9 5,7 7,2 8,2 7,8 7,9 48 26 66 36 WZW 1004,8 8 0 0,1
24.04.2017 17:00:00 7,7 5,8 7,4 7,9 7,7 7,9 43 23 57 31 WZW 1005,2 7 0 0,5
24.04.2017 16:00:00 9,1 3,9 9,2 8,3 7,6 7,9 37 20 54 29 WZW 1005,2 17 0 0,0
24.04.2017 15:00:00 8,2 3,5 8,1 8,1 7,5 7,9 41 22 57 31 WZW 1006,3 25 0 0,0
24.04.2017 14:00:00 7,7 3,0 7,8 8,9 7,3 7,9 44 24 57 31 ZW 1007,1 30 0 0,0
24.04.2017 13:00:00 6,7 3,1 7,3 7,5 7,3 7,9 43 23 57 31 ZW 1008,0 30 0 0,4
24.04.2017 12:00:00 5,2 3,0 4,7 6,9 7,2 7,9 43 23 62 34 ZW 1009,2 9 0 0,1
24.04.2017 11:00:00 6,2 2,4 6,3 6,7 7,1 7,9 42 23 54 29 ZW 1009,8 30 0 0,1
24.04.2017 10:00:00 4,7 2,6 4,6 6,3 7,1 7,9 38 21 50 27 ZW 1011,1 30 0 0,0
24.04.2017 09:00:00 4,4 2,8 4,3 5,8 7,2 7,9 37 20 50 27 ZW 1012,3 15 0 0,3
24.04.2017 08:00:00 4,3 2,8 4,0 5,7 7,2 7,9 33 18 47 25 ZW 1013,2 15 0 0,1
24.04.2017 07:00:00 4,8 3,4 4,3 5,3 7,3 7,9 28 15 48 26 WZW 1013,7 20 0 0,0
24.04.2017 06:00:00 4,8 3,7 4,2 5,2 7,5 7,9 33 18 45 24 WZW 1014,3 10 0 0,3
24.04.2017 05:00:00 4,6 2,7 3,9 4,8 7,7 7,9 27 14 37 20 W 1014,9 19 0 0,0
24.04.2017 04:00:00 4,5 1,4 3,6 4,6 7,9 7,9 26 14 36 19 W 1015,6 35 0 0,0
24.04.2017 03:00:00 4,5 0,5 3,1 4,7 8,2 7,9 23 12 41 22 W 1016,0 35 0 0,0
24.04.2017 02:00:00 4,9 -0,3 3,4 5,1 8,6 7,9 28 15 39 21 WNW 1016,6 43 0 0,0
24.04.2017 01:00:00 4,9 -0,4 3,4 5,4 8,9 7,9 22 12 41 22 WNW 1016,9 43 0 0,0
24.04.2017 00:00:00 5,1 0,0 3,6 6,0 9,3 7,9 23 12 41 22 WNW 1016,9 50 0 0,0
23.04.2017 23:00:00 5,6 -0,2 4,1 6,7 9,7 7,9 29 16 44 24 WNW 1016,8 51 0 0,0
23.04.2017 22:00:00 5,8 0,9 4,2 7,5 10,1 7,9 27 14 40 22 WNW 1016,4 48 0 0,0
23.04.2017 21:00:00 6,0 0,6 4,6 8,8 10,5 7,9 24 13 48 26 WNW 1015,9 48 7 0,0
23.04.2017 20:00:00 6,6 -0,3 5,5 10,7 10,7 7,9 29 16 45 24 WNW 1015,3 66 53 0,0
23.04.2017 19:00:00 6,4 0,9 6,8 13,0 10,7 7,9 22 12 37 20 WNW 1015,0 54 42 0,0
23.04.2017 18:00:00 7,5 0,4 9,1 15,2 10,4 7,9 23 12 40 21 WNW 1015,0 21 58 0,0
23.04.2017 17:00:00 7,6 -0,2 9,9 16,1 10,0 7,9 26 14 42 23 WNW 1014,9 22 52 0,0
23.04.2017 16:00:00 7,8 1,6 11,9 15,4 9,5 7,9 30 16 52 28 WNW 1014,8 38 53 0,0
23.04.2017 15:00:00 7,4 0,5 10,7 15,8 8,9 7,9 35 19 53 29 WNW 1014,7 40 59 0,0
23.04.2017 14:00:00 7,3 1,5 11,0 15,2 8,3 7,9 35 19 50 27 WNW 1015,0 40 42 0,0
23.04.2017 13:00:00 6,5 1,4 8,8 13,6 7,8 7,9 29 15 37 20 WNW 1015,2 35 35 0,0
23.04.2017 12:00:00 7,2 2,0 10,7 11,7 7,3 7,9 20 11 34 19 WNW 1015,3 35 10 0,0
23.04.2017 11:00:00 6,8 2,5 9,9 10,3 6,9 7,9 18 10 38 21 WNW 1015,2 35 20 0,0
23.04.2017 10:00:00 5,4 1,8 6,5 7,3 6,7 7,9 23 13 47 25 WNW 1015,2 30 2 0,0
23.04.2017 09:00:00 5,1 1,7 5,8 6,6 6,6 7,9 26 14 42 23 WNW 1014,9 26 5 0,0
23.04.2017 08:00:00 4,8 2,0 5,3 5,3 6,7 7,9 25 13 40 22 WNW 1014,5 25 0 0,0
23.04.2017 07:00:00 4,7 2,7 4,7 4,6 6,8 7,9 27 15 42 23 WNW 1014,2 21 0 0,0
23.04.2017 06:00:00 4,5 2,8 3,5 4,0 7,0 7,9 31 17 46 25 WNW 1013,8 15 0 0,0
23.04.2017 05:00:00 4,5 2,7 3,2 4,1 7,2 7,9 29 16 44 24 WNW 1013,8 18 0 0,0
23.04.2017 04:00:00 4,6 2,7 3,2 4,3 7,4 7,9 25 14 42 23 WNW 1013,8 18 0 0,0
23.04.2017 03:00:00 4,9 3,1 3,4 4,6 7,6 7,9 22 12 39 21 WNW 1013,9 17 0 0,0
23.04.2017 02:00:00 5,3 3,2 3,8 4,9 7,9 7,9 24 13 37 20 WNW 1013,9 21 0 0,0
23.04.2017 01:00:00 5,6 2,7 4,2 5,2 8,2 7,9 24 13 41 22 W 1013,8 40 0 0,0
23.04.2017 00:00:00 5,8 3,0 4,4 5,5 8,5 7,9 26 14 36 19 WNW 1013,8 44 0 0,0
22.04.2017 23:00:00 5,8 2,8 4,2 5,9 8,8 7,9 24 13 36 19 WNW 1013,5 45 0 0,0
22.04.2017 22:00:00 5,8 1,8 4,0 6,6 9,2 7,9 23 12 36 19 WNW 1013,2 70 0 0,0
22.04.2017 21:00:00 6,3 1,1 4,8 7,7 9,5 7,9 26 14 39 21 WNW 1012,9 70 0 0,0
22.04.2017 20:00:00 6,5 1,7 5,5 9,3 9,6 7,9 23 13 32 18 NW 1012,7 62 13 0,0
22.04.2017 19:00:00 7,1 2,4 6,8 11,5 9,5 7,9 21 12 32 17 WNW 1012,6 52 46 0,0
22.04.2017 18:00:00 7,3 3,5 7,9 12,4 9,4 7,9 20 11 49 27 WNW 1012,6 47 26 0,0
22.04.2017 17:00:00 7,3 2,8 8,0 12,7 9,1 7,9 38 20 55 30 W 1012,5 38 33 0,0
22.04.2017 16:00:00 8,2 2,6 10,8 13,8 8,6 7,9 47 25 61 33 W 1012,6 21 47 0,0
22.04.2017 15:00:00 7,7 2,6 10,6 13,7 8,1 7,9 45 25 59 32 W 1012,9 35 52 0,0
22.04.2017 14:00:00 7,5 2,4 10,5 12,8 7,5 7,9 46 25 58 31 W 1013,0 30 58 0,0
22.04.2017 13:00:00 6,7 2,1 9,7 10,6 7,1 7,8 44 24 57 31 W 1013,2 30 27 0,0
22.04.2017 12:00:00 5,8 2,0 7,8 8,6 6,9 7,8 41 22 59 32 W 1013,3 30 5 0,0
22.04.2017 11:00:00 5,3 1,2 6,5 7,0 6,7 7,8 44 24 60 33 WNW 1013,3 25 0 0,0
22.04.2017 10:00:00 5,4 0,5 6,1 6,2 6,6 7,8 44 24 62 33 W 1013,2 30 0 0,0
22.04.2017 09:00:00 5,1 0,7 5,6 5,5 6,6 7,8 40 21 62 34 WNW 1013,4 30 0 0,0
22.04.2017 08:00:00 4,9 0,5 4,8 4,6 6,7 7,8 43 23 64 35 WNW 1013,3 35 12 0,0
22.04.2017 07:00:00 4,5 0,0 3,6 3,8 6,9 7,8 46 25 69 37 WNW 1013,1 35 0 0,0
22.04.2017 06:00:00 4,4 0,0 3,4 3,9 7,2 7,8 41 22 63 34 WNW 1013,1 30 0 0,0
22.04.2017 05:00:00 4,4 0,2 3,3 3,8 7,4 7,8 33 18 67 36 WNW 1013,2 34 0 0,0
22.04.2017 04:00:00 4,6 -0,1 3,5 4,0 7,7 7,8 40 22 65 35 WNW 1013,3 34 0 0,0
22.04.2017 03:00:00 4,8 -0,4 3,5 4,4 8,0 7,8 46 25 74 40 WNW 1013,2 36 0 0,0
22.04.2017 02:00:00 5,4 0,1 4,2 5,0 8,3 7,8 50 27 82 44 WNW 1012,8 36 0 0,0

tt = temperatuur
td = dauwpunt
tt 5cm = temperatuur 5cm
tt -5cm = temperatuur -5cm
tt -20cm = temperatuur -20cm
tt -100cm = temperatuur -100cm
ff = windsnelheid
fx = windstoten
dd = windrichting
ppp = luchtdruk
vv = zicht
sd = Zonneschijnduur
rr = neerslag

Weerstations in de omgeving